Regional Weather Roundup
Issued by NWS Kansas City/Pleasant Hill, MO

Home | Current Version | Previous Version | Text Only | Print | Product List | Glossary On
Versions: 1 2 3 4 5 6 7 8 9 10 11 12 13 14 15 16 17 18 19 20 21 22 23 24 25 26 27
000
ASUS43 KEAX 312110
RWREAX

WEATHER ROUNDUP FOR EASTERN KANSAS AND NORTHWEST MISSOURI
NATIONAL WEATHER SERVICE KANSAS CITY/PLEASANT HILL MO
400 PM CDT WED AUG 31 2016

KSZ040-057-103>105-MOZ028-029-037-043-312200-
...KANSAS CITY METROPOLITAN AREA...

CITY           SKY/WX    TMP DP  RH WIND       PRES   REMARKS
K.C. INTL      CLOUDY    79  67  66 N10       30.10S
K.C. DOWNTOWN  CLOUDY    83  68  60 N12       30.07S
LEES SUMMIT    CLOUDY    79  69  71 NE10      30.09S
OLATHE - IXD   CLOUDY    78  70  76 N8        30.10S
OLATHE - OJC   CLOUDY    78  69  73 NE10      30.09S
LAWRENCE       CLOUDY    81  70  69 N7        30.09S

$$

MOZ001>008-011>017-020>025-030>033-038>040-044>046-053-054-312200-
...NORTHERN AND CENTRAL MISSOURI...

CITY           SKY/WX    TMP DP  RH WIND       PRES   REMARKS
ST. JOSEPH     CLOUDY    80  69  69 N12       30.10F
MOSBY          CLOUDY    79  68  69 NE7       30.09S
WHITEMAN AFB   PTSUNNY   79  74  85 N10       30.06S
CLINTON        CLOUDY    75  73  94 CALM      30.07F
SEDALIA        CLOUDY    80  70  71 E5        30.07F
WARSAW         NOT AVBL
CHILLICOTHE      N/A     82  64  54 NE7       30.09F
KIRKSVILLE     PTSUNNY   78  61  55 N9        30.10S

$$

MOZ041-047>049-056>058-063>065-088>090-097-312200-
...EASTERN AND SOUTHERN MISSOURI...

CITY           SKY/WX    TMP DP  RH WIND       PRES   REMARKS
ST. LOUIS INTL CLOUDY    82  73  74 N10       30.03F
SPIRIT OF STL  CLOUDY    81  73  76 VRB6      30.01F
COLUMBIA       LGT RAIN  74  71  91 SE3       30.06F FOG
JEFFERSON CITY CLOUDY    80  72  76 CALM      30.04F
ROLLA          CLOUDY    76  72  87 W7        30.06F
OSAGE BEACH    LGT RAIN  72  70  93 CALM      30.08F
SPRINGFIELD    MOSUNNY   82  69  64 NE13      30.06F
BRANSON        PTSUNNY   81  72  74 N5        30.06F
JOPLIN         CLOUDY    83  73  72 N9        30.05F
WEST PLAINS    CLOUDY    82  71  69 N9        30.06F

$$

IAZ060-094-KSZ022-034>040-054-083-096-NEZ052-066-093-312200-
...KANSAS...SOUTHEAST NEBRASKA AND IOWA...

CITY           SKY/WX    TMP DP  RH WIND       PRES   REMARKS
TOPEKA         MOSUNNY   81  70  69 VRB3      30.10S
MANHATTAN      CLOUDY    78  70  76 NE6       30.11F
EMPORIA        CLOUDY    77  70  79 N7        30.10S
CHANUTE        CLOUDY    80  70  71 NE8       30.06F
WICHITA        PTSUNNY   83  68  60 N9        30.09S
OMAHA          PTSUNNY   82  56  40 NE9       30.15F
LINCOLN        MOSUNNY   82  61  48 NE9       30.16F
FALLS CITY     MOSUNNY   79  62  56 NE6       30.11F
LAMONI         MOSUNNY   79  61  53 NE13      30.12F
DES MOINES     PTSUNNY   82  56  40 NE15      30.12F

$$





USA.gov is the U.S. government's official web portal to all federal, state and local government web resources and services.